Location: Bacharowice
(49.9333°N, 19.5833°E)
Time: 21:44:57
(UTC+00:00)

Cosmos 2150 Rocket - Pass Details

Date: 11 May 2021
Orbit: 750 x 807 km, 74.0° (Epoch: 20 June)

Event Time Altitude Azimuth Distance (km) Brightness Sun altitude
Exits shadow 23:04:30 44° 221° (SW) 1,086 4.4 -21.7°
Maximum altitude 23:06:13 74° 295° (WNW) 817 4.1 -21.7°
Drops below altitude 10° 23:11:31 10° 21° (NNE) 2,331 7.6 -21.5°
Sets 23:13:54 0° 23° (NNE) 3,253 8.6 -21.5°
